STARLINK-34405, 64704

Orbit data source: Space-Track

STARLINK-34405, 64704 is a payload satellite owned by SpaceX/Seattle (US) in LEO that was launched on Sat, 28 Jun 2025 UTC via an FALCON 9 launch vehicle from the Air Force Western Test Range (AFWTR). Payload-class satellites include a variety of spacecraft equipped with specific instruments for various scientific and technological missions. These include communications satellites like Starlink; space stations such as the ISS; scientific satellites like the Hubble; Earth observation satellites from companies like Planet Labs, Umbra, and HawkEye 360; GPS; miniature CubeSats for education and research; and military/defense satellites.

Loading next visibility...
Identifier
64704, 2025-142J
Orbit
LEO
Country
Flag of USUS
Related business
Manufacturer
SpaceX/Seattle
Mission
Operational Commercial Communications
Bus & Motor
STARLINK V2MO, Unknown motor
Mass
575 kg wet, ~530 kg dry
Launch date (UTC)
2025-06-28 (1 year ago)
Launch vehicle
FALCON 9
Launch site
Air Force Western Test Range (AFWTR)
Object type
Payload
Rocket body
Debris
Shape & HBR
Box + 1 Pan, 17.7 m
Radar Cross Section
41.120 m², Large (>1 m²)

Expand to show TLE details & history
Last TLE update: 8 hours ago

TLE from 8 hours ago
0 STARLINK-34405
1 64704U 25142J   26264.47323461  .00010246  00000-0  36035-3 0  9998
2 64704  70.0007 178.5709 0003052 277.2221  82.8607 15.29582868 68871
Epoch: 2026-09-21T11:21Z
TLE epoch observation values (Epoch: 2026-09-21T11:21:27.470Z)
Latitude
-0.00003°
Longitude
7.85387°
Altitude
479.256 km
Speed
7.626 km/s
True Right ascension
11h 54m 17s
True Declination
0° 00' 00"
Sunlit
Object was in daylight at epoch
Visualization orbit readout
Latitude
Unknown
Longitude
Unknown
Altitude
Unknown
Speed
Unknown
Apparent Right ascension
Unknown
Apparent Declination
Unknown
Sunlit
N/A
Visualization observer readout
Local Sidereal Time
12:53:05
Azimuth
Unknown
Elevation
Unknown
Doppler factor
Unknown
Orbital elements
Apogee altitude
477.07 km
Perigee altitude
472.886 km
Semi-major axis
6,853.115 km
Eccentricity
0.00031
Inclination
70.0007°
RAAN
178.5709°
Arg. of periapsis
277.2221°
True anomaly
82.8954°
Mean anomaly
82.8607°
Eccentric anomaly
82.87805°
Mean motion
3.8257 °/min
Orbital period
94.1 mins
BSTAR
0.00036035
Loading maneuver chart data...
Computing Atmospheric mass density...
Loading historical data...
Loading historical data...
Loading historical data...
Loading historical data...
Loading historical data...
Loading historical data...
Loading historical data...

Documentation

Showing up to 5 results
|